Tracking 29494 objects as of 8-Sep-2024
HD Live streaming from Space Station
objects crossing your sky now

FLOCK 4Q 32

Track FLOCK 4Q 32 now!
10-day predictions
FLOCK 4Q 32 is classified as:


NORAD ID: 58310
Int'l Code: 2023-174BG
Perigee: 474.4 km
Apogee: 486.0 km
Inclination: 97.5 °
Period: 94.1 minutes
Semi major axis: 6851 km
RCS: Unknown
Launch date: November 11, 2023
Source: United States (US)
Launch site: AIR FORCE WESTERN TEST RANGE (AFWTR)
Your satellite tracking list
Your tracking list is empty




NASA's NSSDC Master Catalog

Two Line Element Set (TLE):
1 58310U 23174BG  24251.76033559  .00065911  00000-0  21896-2 0  9996
2 58310  97.4525 327.3851 0008460 281.3958  78.6332 15.30923770 46370
Source of the keplerian elements: AFSPC